リニア-ニート彗星

355P/LINEAR-NEAT (2004)

English version
Home page
Updated on September 2, 2017

---------------------------------------------------------------------

・ プロフィール

符号 355P/2004 T1
発見日 2004年10月5日
発見光度 17.2, 15.2等
発見者 Lincoln Laboratory Near-Earth Asteroid Research project, Near-Earth-Asteroid Tracking Team (Jet Propulsion Laboratory)

・ 写真集

・ 軌道要素

Epoch 2004 Nov. 11.0 TT = JDT 2453320.5
T 2004 Nov. 7.76696 TT                                  MPCW
q   1.7095509            (2000.0)            P               Q
n   0.15235568     Peri.  336.52202     +0.87732764     -0.45592833
a   3.4718712      Node    51.46034     +0.46503560     +0.73067035
e   0.5075996      Incl.   11.03771     +0.11848246     +0.50818324
P   6.47
From 424 observations 2004 July 16-2017 June 22, mean residual 0".6.

・ 星図

・ 光度変化

        m1 = 6.5 + 5 logΔ + 35 log r(t + 25)

---------------------------------------------------------------------

軌道要素はM.P.E.C. 2017-M40に掲載されたものです。
星図は StellaNavigator Ver.2.0 for Windows (アストロアーツ 編著 / アスキー出版局刊) で作成したものです。
光度グラフはComet for Windowsで作成したものです。

---------------------------------------------------------------------

Copyright(C) Seiichi Yoshida (comet@aerith.net). All rights reserved.